TITAN 3C TRANSTAGE DEB, 1835

Orbit data source: Space-Track

TITAN 3C TRANSTAGE DEB, 1835 is space debris in LEO originally from a launch on Fri, 15 Oct 1965 UTC launched from the Air Force Eastern Test Range (AFETR). Debris objects in space refer to the collection of defunct objects orbiting the Earth. Examples of debris include non-operational satellites, rocket bodies, and fragments generated from explosions, collisions, or faulty payload assembly.

Loading next visibility...
Identifier
1835, 1965-082EA
Orbit
LEO
Country
Flag of USUS
Related business
Manufacturer
Unknown
Mission
Spacecraft
Bus & Motor
Unknown
Mass
Unknown
Launch date (UTC)
1965-10-15 (60 years ago)
Launch vehicle
Unknown
Launch site
Air Force Eastern Test Range (AFETR)
Object type
Payload
Rocket body
Debris
Shape & HBR
Unknown shape, 0.2 m
Radar Cross Section
Small (<0.1 m²)

Expand to show TLE details & history
Last TLE update: 1 day ago

TLE from 1 day ago
0 TITAN 3C TRANSTAGE DEB
1 01835U 65082EA  25305.91044626  .00005579  00000-0  36259-3 0  9999
2 01835  32.3958  22.1569 0012501 201.6395 158.3741 15.06772663213030
Epoch: 2025-11-01T21:51Z
TLE epoch observation values (Epoch: 2025-11-01T21:51:02.556Z)
Latitude
Longitude
12.96251°
Altitude
552.765 km
Speed
7.583 km/s
True Right ascension
01h 28m 37s
True Declination
0° 00' 00"
Sunlit
Object was in full shadow at epoch
Visualization orbit readout
Latitude
Unknown
Longitude
Unknown
Altitude
Unknown
Speed
Unknown
Apparent Right ascension
Unknown
Apparent Declination
Unknown
Sunlit
N/A
Visualization observer readout
Local Sidereal Time
03:28:55
Azimuth
Unknown
Elevation
Unknown
Doppler factor
Unknown
Orbital elements
Apogee altitude
558.358 km
Perigee altitude
541.037 km
Semi-major axis
6,927.834 km
Eccentricity
0.00125
Inclination
32.3958°
RAAN
22.1569°
Arg. of periapsis
201.6395°
True anomaly
158.42682°
Mean anomaly
158.3741°
Eccentric anomaly
158.40047°
Mean motion
3.76398 °/min
Orbital period
95.64 mins
BSTAR
0.00036259

Documentation

Showing up to 5 results
|